Atqasuk Edward Burnell Sr Mem, AK

5:22 AM AKDT on July 20, 2019 (GMT -0800)
Atqasuk Edward Burnell Sr Mem

Weather History for PATQ - May, 2019

Change the Weather History Date:

Friday, May 17, 2019

  Actual Average (WUND) Record (WUND)
Temperature  
Mean Temperature 30 °F -  
Max Temperature 33 °F - - (-1)
Min Temperature 28 °F - - (-1)
Degree Days  
Heating Degree Days 34    
Moisture  
Dew Point 29 °F    
Average Humidity 93    
Maximum Humidity 100    
Minimum Humidity 87    
Precipitation  
Precipitation 0.00 in - - ()
Sea Level Pressure  
Sea Level Pressure 29.80 in    
Wind  
Wind Speed 25 mph (East)    
Max Wind Speed 36 mph    
Max Gust Speed 39 mph    
Visibility 5 miles    
Events Snow    
Averages and records for this station are not official NWS values.
T = Trace of Precipitation, MM = Missing Value Source: NWS Daily Summary

Daily Weather History Graph

Daily Weather History Graph

Search for Another Location

Airport or City:

Astronomy

May. 17, 2019 Rise Set
Actual Time 2:58 AM AKDT 1:53 AM AKDT
Civil Twilight Sun does not set Sun does not set
Nautical Twilight Sun does not set Sun does not set
Astronomical Twilight Sun does not set Sun does not set
Moon 10:51 PM AKDT (5/17) 5:20 AM AKDT (5/17)
Length of Visible Light 24h 00m
Length of Day
22h 55m
Waxing Gibbous, 99% of the Moon is Illuminated
May 17
Waxing Gibbous
May 18
Full
May 26
Last Quarter
Jun 3
New
Jun 9
First Quarter

Hourly Weather History & Observations

Time (AKDT) Temp. Windchill Dew Point Humidity Pressure Visibility Wind Dir Wind Speed Gust Speed Precip Events Conditions
12:36 AM 30.2 °F 17.4 °F 28.4 °F 93% 29.85 in 2.0 mi ENE 20.7 mph - 0.00 in Snow Light Snow
12:52 AM 30.2 °F 18.1 °F 28.4 °F 93% 29.85 in 1.5 mi ENE 18.4 mph - 0.00 in Snow Light Snow
12:56 AM 30.9 °F 18.7 °F 28.9 °F 92% 29.87 in 1.2 mi ENE 19.6 mph - 0.00 in Snow Light Snow
1:23 AM 30.2 °F 17.8 °F 28.4 °F 93% 29.84 in 1.0 mi ENE 19.6 mph - 0.00 in Snow Light Snow
1:56 AM 30.0 °F 17.2 °F 28.9 °F 96% 29.86 in 1.0 mi ENE 20.7 mph - 0.00 in Snow Light Snow
2:56 AM 30.0 °F 17.2 °F 28.9 °F 96% 29.84 in 1.0 mi ENE 20.7 mph - 0.00 in Snow Light Snow
3:08 AM 30.2 °F 16.8 °F 28.4 °F 93% 29.82 in 1.2 mi ENE 23.0 mph - 0.00 in Snow Light Snow
3:24 AM 28.4 °F 14.7 °F 28.4 °F 100% 29.82 in 2.0 mi ENE 21.9 mph - 0.00 in Snow Light Snow
3:36 AM 28.4 °F 14.4 °F 28.4 °F 100% 29.81 in 5.0 mi ENE 23.0 mph - 0.00 in Snow Light Snow
3:56 AM 28.9 °F 15.4 °F 28.9 °F 100% 29.84 in 9.0 mi ENE 21.9 mph - 0.00 in   Clear
4:10 AM 30.2 °F 16.5 °F 28.4 °F 93% 29.81 in 10.0 mi ENE 24.2 mph - N/A   Partly Cloudy
4:56 AM 28.9 °F 15.1 °F 28.9 °F 100% 29.83 in 9.0 mi East 23.0 mph - 0.00 in Snow Light Snow
5:56 AM 28.9 °F 14.8 °F 28.0 °F 96% 29.82 in 9.0 mi East 24.2 mph - 0.00 in Snow Light Snow
6:43 AM 28.4 °F 14.1 °F 28.4 °F 100% 29.79 in 9.0 mi ENE 24.2 mph - 0.00 in Snow Light Snow
6:56 AM 28.9 °F 14.0 °F 28.0 °F 96% 29.81 in 9.0 mi ENE 27.6 mph - 0.00 in Snow Light Snow
7:56 AM 28.9 °F 14.0 °F 28.0 °F 96% 29.80 in 10.0 mi ENE 27.6 mph - 0.00 in Snow Light Snow
8:03 AM 28.4 °F 13.3 °F 28.4 °F 100% 29.78 in 8.0 mi ENE 27.6 mph - 0.00 in Snow Light Snow
8:20 AM 28.4 °F 13.5 °F 28.4 °F 100% 29.78 in 7.0 mi ENE 26.5 mph - 0.00 in Snow Light Snow
8:34 AM 28.4 °F 13.3 °F 28.4 °F 100% 29.78 in 10.0 mi East 27.6 mph - 0.00 in   Scattered Clouds
8:56 AM 30.0 °F 15.2 °F 28.0 °F 92% 29.80 in 8.0 mi ENE 28.8 mph - 0.00 in Snow Light Snow
9:21 AM 30.2 °F 15.2 °F 28.4 °F 93% 29.77 in 5.0 mi East 29.9 mph - 0.00 in Snow Light Snow
9:41 AM 30.2 °F 15.2 °F 28.4 °F 93% 29.77 in 1.8 mi East 29.9 mph 36.8 mph 0.00 in Snow Light Snow
9:56 AM 30.0 °F 14.7 °F 28.9 °F 96% 29.79 in 1.2 mi East 31.1 mph - 0.00 in Snow Light Snow
10:27 AM 30.2 °F 15.2 °F 28.4 °F 93% 29.78 in 1.2 mi East 29.9 mph - 0.00 in Snow Light Snow
10:50 AM 32.0 °F 17.4 °F 30.2 °F 93% 29.78 in 2.0 mi East 31.1 mph - 0.00 in Snow Light Snow
10:51 AM 32.0 °F 17.2 °F 30.0 °F 92% 29.80 in 2.0 mi East 32.2 mph - 0.00 in Snow Light Snow
10:56 AM 32.0 °F 17.6 °F 30.2 °F 93% 29.78 in 5.0 mi East 29.9 mph - 0.00 in Snow Light Snow
11:29 AM 32.0 °F 17.2 °F 30.2 °F 93% 29.78 in 2.0 mi East 32.2 mph 35.7 mph 0.00 in Snow Light Snow
11:37 AM 32.0 °F 17.2 °F 30.2 °F 93% 29.78 in 3.0 mi East 32.2 mph 35.7 mph 0.00 in Snow Light Snow
11:51 AM 30.2 °F 14.5 °F 30.2 °F 100% 29.78 in 2.0 mi East 33.4 mph 38.0 mph 0.00 in Snow Light Snow
11:56 AM 30.9 °F 15.9 °F 30.0 °F 96% 29.81 in 2.5 mi East 31.1 mph 38.0 mph 0.00 in Snow Light Snow
12:03 PM 32.0 °F 16.7 °F 30.2 °F 93% 29.78 in 3.0 mi East 34.5 mph 39.1 mph 0.00 in   Mostly Cloudy
12:19 PM 32.0 °F 16.5 °F 28.4 °F 87% 29.78 in 10.0 mi East 35.7 mph - 0.00 in   Partly Cloudy
12:56 PM 32.0 °F 17.4 °F 28.9 °F 88% 29.81 in 2.0 mi East 31.1 mph 36.8 mph 0.00 in Snow Light Snow
1:00 PM 32.0 °F 17.2 °F 28.4 °F 87% 29.79 in 1.8 mi East 32.2 mph - 0.00 in Snow Light Snow
1:06 PM 32.0 °F 17.2 °F 28.4 °F 87% 29.79 in 2.5 mi East 32.2 mph 36.8 mph 0.00 in Snow Light Snow
1:13 PM 32.0 °F 17.9 °F 28.4 °F 87% 29.79 in 7.0 mi East 28.8 mph 36.8 mph 0.00 in   Scattered Clouds
1:56 PM 32.0 °F 17.0 °F 28.9 °F 88% 29.81 in 6.0 mi East 33.4 mph 38.0 mph 0.00 in   Partly Cloudy
2:56 PM 32.0 °F 17.4 °F 28.9 °F 88% 29.81 in 10.0 mi East 31.1 mph - 0.00 in   Clear
3:56 PM 32.0 °F 17.4 °F 28.9 °F 88% 29.80 in 10.0 mi East 31.1 mph - N/A   Clear
4:56 PM 33.1 °F 18.9 °F 30.0 °F 89% 29.80 in 10.0 mi East 31.1 mph 36.8 mph 0.00 in   Partly Cloudy
5:18 PM 33.8 °F 19.9 °F 30.2 °F 87% 29.77 in 4.0 mi East 31.1 mph - 0.00 in Snow Light Snow
5:24 PM 33.8 °F 20.3 °F 30.2 °F 87% 29.78 in 1.8 mi East 28.8 mph - 0.00 in Snow Light Snow
5:32 PM 32.0 °F 17.6 °F 30.2 °F 93% 29.77 in 1.0 mi East 29.9 mph - 0.00 in Snow Light Snow
5:56 PM 32.0 °F 17.6 °F 30.9 °F 96% 29.79 in 1.2 mi East 29.9 mph - 0.00 in Snow Light Snow
6:15 PM 32.0 °F 18.1 °F 30.2 °F 93% 29.77 in 3.0 mi East 27.6 mph - 0.00 in Snow Light Snow
6:42 PM 32.0 °F 17.6 °F 30.2 °F 93% 29.77 in 10.0 mi East 29.9 mph - 0.00 in   Scattered Clouds
6:56 PM 32.0 °F 17.4 °F 30.0 °F 92% 29.79 in 10.0 mi East 31.1 mph 35.7 mph 0.00 in   Partly Cloudy
7:37 PM 32.0 °F 18.4 °F 30.2 °F 93% 29.78 in 9.0 mi East 26.5 mph 35.7 mph N/A   Mostly Cloudy
7:56 PM 32.0 °F 17.9 °F 30.0 °F 92% 29.80 in 5.0 mi East 28.8 mph - 0.00 in   Mostly Cloudy
8:56 PM 32.0 °F 18.1 °F 30.0 °F 92% 29.80 in 3.0 mi East 27.6 mph 32.2 mph 0.00 in   Overcast
9:56 PM 32.0 °F 18.4 °F 30.0 °F 92% 29.79 in 5.0 mi East 26.5 mph - 0.00 in   Overcast
10:52 PM 32.0 °F 18.9 °F 30.2 °F 93% 29.76 in 9.0 mi East 24.2 mph - 0.00 in   Scattered Clouds
10:56 PM 32.0 °F 18.4 °F 30.0 °F 92% 29.79 in 10.0 mi East 26.5 mph - 0.00 in   Scattered Clouds
11:56 PM 32.0 °F 19.2 °F 30.0 °F 92% 29.79 in 10.0 mi East 23.0 mph - N/A   Clear